Terminal Aerodrome Forecast
Issued by NWS

Home | Current Version | Previous Version | Text Only | Print | Product List | Glossary On
Versions: 1 2 3 4 5 6 7 8 9 10 11 12 13 14 15 16 17 18 19 20 21 22 23 24
000
FTUS45 KRIW 022320
TAFPNA
TAF
KPNA 022320Z 0300/0324 VRB06KT P6SM FEW110 SCT200
     FM030200 33008KT P6SM SCT100 BKN200
     FM032000 VRB10G18KT P6SM VCTS SCT070CB BKN100
      AMD LTD TO CLD VIS AND WIND=

USA.gov is the U.S. government's official web portal to all federal, state and local government web resources and services.